RH
64 60 72 78 84 82 86 83 78 73 75 74 81 76 73 52 81 80 82 82 85 81 82 83 86 86 88 85 91 92 86 82 81 78 80 77 80 75 72 69 69 67 70
49 49 60 70 72 72 78 77 83 84 76 78 69 62 59 69 84 86 85 87 84 83 82 77 78 85 86 88 92 91 88 90 88 87 83 84 77 69 67 68 76 69 67
48 47 50 61 71 74 74 76 77 81 81 77 74 79 86 86 85 85 82 80 85 82 82 82 82 84 83 88 93 94 96 92 92 86 94 90 88 85 80 76 79 84 88
47 44 44 44 45 56 63 63 64 68 72 74 76 78 83 83 89 83 81 81 81 77 76 75 69 81 75 86 96 98 82 87 88 75 73 80 97 100 87 80 80 86 84
46 43 42 41 41 42 48 64 67 68 69 74 75 74 69 75 83 73 78 82 80 79 59 52 68 72 71 82 77 61 50 45 40 40 43 49 60 66 94 90 83 84 80
42 41 39 39 40 40 42 44 61 61 64 68 73 74 73 73 76 82 78 84 80 72 68 68 68 67 66 37 33 33 35 36 38 40 42 45 53 59 75 89 81 91 93
36 39 40 38 39 40 39 38 41 48 53 58 66 69 71 72 74 76 82 88 82 75 71 67 64 69 36 36 34 33 36 38 43 48 50 54 58 70 79 94 98 96 98
36 36 36 38 37 38 38 40 41 40 43 55 63 63 65 68 70 75 84 95 87 77 64 60 60 39 37 35 38 38 43 44 47 49 52 55 64 75 73 86 93 100 100
36 35 35 32 33 35 37 39 41 42 51 58 59 62 62 66 69 77 75 69 74 80 71 49 39 37 37 41 39 43 47 48 49 51 54 57 58 61 62 71 99 93 100
32 32 31 31 32 36 37 41 43 43 45 45 44 50 63 66 84 69 73 69 63 51 45 40 41 41 41 42 45 47 47 51 53 54 56 58 59 59 69 87 95 96 99
29 31 32 34 42 39 39 42 45 46 46 44 43 47 57 67 62 55 54 54 52 56 48 48 46 47 45 44 50 52 52 54 58 59 60 64 64 72 82 94 96 96 94
34 32 29 29 30 44 46 46 46 48 47 49 51 51 54 56 53 50 50 47 57 54 58 60 62 59 53 50 56 57 58 59 61 69 66 71 74 77 90 96 98 97 96
35 32 30 29 29 30 41 49 49 49 50 51 54 57 59 52 53 57 59 63 61 55 56 57 64 62 58 57 60 61 64 65 64 71 76 79 80 87 98 99 98 99 98
35 34 33 32 31 28 31 36 47 54 55 56 58 60 60 55 61 60 58 52 58 67 75 66 59 58 61 64 66 67 64 64 72 76 84 90 98 100 100 100 100 97 98
36 33 35 35 35 34 35 37 43 54 60 63 64 62 62 64 58 56 58 74 75 68 66 62 60 63 67 69 68 68 69 72 78 88 98 100 99 99 100 100 100 100 100
39 39 39 42 44 43 40 41 43 50 63 70 72 72 70 66 61 62 69 67 67 69 66 67 66 67 71 76 73 71 72 83 99 100 99 100 99 100 98 99 99 99 92
42 40 41 42 44 44 45 48 47 54 63 72 77 77 75 69 65 66 63 67 70 70 72 73 71 76 78 80 81 77 94 100 100 100 100 99 99 63 53 51 59 43 33
50 47 45 45 45 44 44 48 50 58 65 71 76 76 79 75 68 66 69 72 73 73 71 72 76 77 81 93 99 97 100 100 98 96 99 98 49 17 13 12 11 10 9
50 49 52 49 46 42 42 48 49 60 67 70 72 71 71 70 70 71 73 75 76 74 72 72 74 80 88 98 98 100 99 100 100 100 92 32 16 16 18 15 14 14 14
52 54 58 57 54 49 52 51 48 59 67 66 67 70 72 71 72 75 76 77 76 73 74 76 80 86 94 98 96 98 93 89 71 41 16 14 18 21 19 9 14 15 16
55 59 60 60 56 53 57 53 50 61 61 66 70 73 73 75 76 78 78 79 78 74 74 76 83 90 99 99 99 94 63 25 15 14 16 20 19 12 12 9 18 19 20
60 64 64 65 60 62 68 57 53 49 67 70 73 76 77 79 80 80 81 81 79 77 75 80 86 98 100 99 99 89 28 15 15 17 19 20 18 16 13 10 11 17 19
66 70 68 68 67 72 76 73 64 56 63 76 76 78 80 82 82 81 82 80 82 76 78 85 93 99 100 99 99 80 25 15 14 18 21 21 22 20 16 12 11 12 14
68 72 71 70 69 75 79 78 78 78 80 81 80 85 85 88 87 83 81 81 81 82 85 92 95 100 100 99 99 86 29 19 13 14 16 17 19 20 18 15 14 13 14
87 80 73 72 72 74 78 78 80 83 85 89 94 93 90 90 87 84 82 82 88 89 93 96 100 100 99 98 100 94 37 21 21 17 15 14 13 13 13 14 15 15 15
97 90 77 78 83 78 77 78 79 79 82 84 84 88 90 92 90 87 86 91 97 99 98 100 100 100 98 99 99 99 52 27 32 30 20 17 17 15 14 14 14 14 14
Wind_Speed
15 21 22 25 26 26 29 32 33 33 34 35 38 34 30 28 34 28 24 21 22 13 9 8 9 8 8 9 12 13 12 15 15 18 20 21 23 23 23 23 19 15 14
12 12 16 23 26 24 29 31 35 38 38 40 36 35 33 32 28 25 24 25 24 21 17 15 12 13 12 14 14 15 16 17 17 19 22 26 23 15 7 9 8 8 11
17 14 12 13 19 25 25 26 27 31 37 36 34 34 30 28 31 29 28 26 27 24 22 19 16 16 17 18 17 18 19 20 22 21 18 10 5 7 11 11 12 11 9
21 17 15 16 16 18 23 26 25 26 28 30 29 32 38 38 35 33 31 28 28 22 17 13 17 22 22 22 23 25 25 24 27 25 23 23 25 21 11 6 9 10 14
26 25 22 19 20 19 20 22 22 23 25 26 28 27 29 33 31 29 33 32 27 26 22 25 24 26 23 23 24 23 23 24 24 23 21 19 20 22 19 22 20 18 19
28 24 21 23 27 24 21 21 21 21 23 25 28 28 27 27 28 30 29 30 27 25 21 21 24 24 23 23 22 22 22 21 20 19 19 19 18 17 15 15 15 21 22
25 25 24 22 22 23 25 25 24 21 21 24 28 29 28 27 27 27 26 27 27 20 16 20 21 21 23 20 20 20 20 20 20 20 20 20 20 20 20 19 22 23 22
20 22 22 22 23 22 22 27 28 25 24 23 25 27 28 30 28 26 20 18 16 18 18 23 21 20 19 20 19 19 20 21 21 20 20 20 20 21 23 22 21 16 19
3 6 9 14 23 24 20 26 27 27 25 22 22 24 26 29 27 22 20 23 19 23 22 19 19 19 19 19 20 20 21 21 21 20 20 20 20 21 21 20 17 20 21
2 4 8 13 13 19 18 21 26 25 24 24 23 23 21 21 24 22 18 14 13 15 15 16 16 17 18 21 21 21 22 22 21 21 21 21 20 20 18 17 16 18 19
4 5 6 7 6 11 15 17 22 23 23 22 21 20 18 17 17 17 19 17 12 8 12 14 17 18 18 21 22 20 20 20 20 20 20 19 20 17 16 16 16 18 21
6 7 9 9 6 6 10 15 19 21 20 20 19 18 18 20 19 17 16 17 25 30 31 28 23 28 25 25 21 20 20 20 19 19 18 18 18 16 17 17 17 19 20
7 8 10 11 10 7 10 13 17 19 20 20 19 19 20 22 22 20 21 22 20 17 18 22 23 23 22 21 20 20 20 20 20 18 18 19 18 17 17 17 18 19 20
12 12 11 9 10 8 7 11 16 19 20 21 21 21 22 21 23 23 21 19 17 20 20 21 19 18 19 19 20 20 21 21 19 18 18 17 17 16 17 16 16 18 17
15 17 16 14 12 13 11 13 15 18 21 22 22 22 22 21 23 21 18 22 22 18 17 17 17 17 18 19 20 22 21 20 18 16 15 15 14 15 15 13 13 12 12
11 13 13 16 17 17 17 17 18 19 20 22 23 22 24 24 24 23 21 17 15 14 15 17 16 17 18 19 21 20 17 15 13 12 11 11 11 13 11 10 8 10 10
13 16 17 18 19 19 21 23 22 22 20 22 22 22 23 23 24 22 19 16 15 15 15 15 16 16 16 19 20 17 12 11 11 11 11 10 10 7 7 7 8 9 9
11 14 17 18 19 19 22 21 24 25 22 22 22 22 23 23 22 20 18 16 15 14 15 16 16 17 18 18 17 14 11 11 11 12 11 9 8 8 8 7 6 6 7
17 18 19 20 22 21 20 22 22 25 24 22 22 22 22 22 22 21 17 15 15 15 16 17 18 18 17 15 15 13 12 11 11 11 9 9 9 8 7 8 6 6 6
19 20 20 20 21 20 19 22 22 24 24 23 23 23 21 21 21 18 16 17 17 17 17 17 17 16 14 13 13 12 10 10 9 9 10 9 9 7 6 6 7 6 5
24 21 21 21 19 17 19 21 22 25 22 22 21 22 22 21 19 18 19 18 18 17 16 16 16 14 12 12 12 12 11 10 10 10 10 9 8 7 7 7 8 7 7
27 24 22 20 18 16 16 20 25 21 26 25 22 22 21 21 21 20 19 19 18 17 15 15 14 12 12 13 13 12 11 12 11 10 10 10 9 8 7 7 10 9 8
29 27 23 20 16 14 13 15 22 24 24 26 24 23 22 22 21 20 19 19 17 17 16 15 14 12 13 14 14 14 14 13 12 11 11 11 11 10 8 8 9 10 9
31 28 24 19 15 13 10 6 6 11 15 20 23 21 21 21 20 20 19 18 17 16 17 15 15 13 15 16 16 17 16 15 13 12 12 12 12 11 11 11 10 10 10
28 28 24 15 11 10 9 9 4 8 12 15 16 17 17 18 18 18 17 16 16 16 17 15 13 14 15 14 15 17 17 15 14 14 14 14 13 13 12 12 12 13 13
31 28 23 17 11 9 7 7 8 10 12 14 16 16 17 18 18 17 16 16 15 16 16 16 15 13 14 15 16 17 17 17 17 20 19 17 16 16 15 15 15 15 15
Wind_Direction
201 204 208 212 209 215 214 211 211 209 210 212 220 221 215 228 229 225 230 235 238 236 217 212 221 243 257 257 258 266 274 282 290 290 290 288 289 294 290 288 285 285 277
198 195 209 212 216 216 218 217 217 219 218 216 229 226 225 222 225 225 226 234 234 232 231 231 242 245 259 259 267 273 274 275 279 283 291 297 301 300 305 299 282 294 288
211 218 218 209 212 215 222 230 227 226 222 227 227 227 225 224 223 221 227 225 224 222 223 229 244 252 257 261 266 270 274 275 271 272 272 290 279 288 302 293 299 305 270
227 212 223 232 229 224 223 231 233 233 233 233 233 236 236 227 223 226 222 218 222 232 220 240 257 253 265 261 266 271 276 277 279 280 272 267 265 277 296 275 286 284 258
240 239 232 230 236 239 240 238 233 236 237 239 238 242 239 234 231 228 224 224 216 208 220 242 249 266 264 272 276 282 283 281 281 281 280 273 266 264 254 265 270 271 263
244 248 249 247 242 239 243 249 237 237 240 245 242 242 239 236 236 232 232 229 224 231 243 241 253 262 270 273 276 279 279 279 280 278 277 277 273 270 261 263 270 264 261
248 250 246 246 243 235 239 247 249 245 244 248 250 250 248 247 240 243 240 241 241 244 260 260 260 262 269 272 276 278 278 278 278 277 276 275 273 271 269 264 263 262 265
252 256 253 251 253 244 242 241 242 247 248 243 245 250 251 249 245 245 235 247 260 252 254 260 255 262 271 277 280 282 280 278 277 277 275 272 271 271 276 267 264 270 266
229 252 255 263 257 250 250 243 241 246 248 251 255 257 256 248 234 231 230 244 259 250 245 252 263 272 279 282 282 282 283 283 283 282 279 276 273 273 274 268 259 255 265
325 292 286 266 265 239 248 245 237 242 250 256 260 259 260 251 229 222 219 216 219 241 261 279 285 288 291 292 290 287 285 284 284 282 279 278 276 275 266 258 259 259 260
332 329 335 334 315 247 241 242 239 243 250 256 255 250 240 226 221 228 224 219 211 259 274 289 287 288 293 293 284 284 285 285 283 280 278 279 280 268 262 256 258 257 256
24 13 8 0 326 293 252 242 243 249 253 253 248 241 230 215 209 215 229 233 250 252 268 275 277 277 279 275 280 286 284 283 282 280 278 276 277 269 261 263 255 256 257
338 342 349 353 347 309 270 254 250 252 251 247 243 234 224 218 215 220 239 253 242 240 250 254 262 271 274 276 279 283 284 283 278 277 277 276 278 273 266 256 255 252 251
307 300 303 317 329 323 295 268 257 249 247 245 238 233 228 233 239 234 230 223 234 254 262 263 262 269 277 283 285 284 284 281 277 274 273 274 275 276 274 264 255 255 253
280 274 270 269 273 265 266 269 260 251 246 242 237 234 233 231 229 222 226 255 257 252 256 266 274 278 281 283 284 284 277 273 273 276 278 279 277 273 269 261 252 243 238
292 286 278 266 262 260 261 265 266 262 251 242 239 238 237 233 226 233 260 246 246 254 264 268 275 280 282 284 289 287 279 271 273 274 276 281 279 276 266 252 235 227 224
279 279 280 277 272 267 265 259 261 261 254 244 237 235 233 229 234 245 236 241 248 257 270 279 282 281 285 288 291 290 273 263 260 264 268 273 266 257 248 245 237 238 236
294 292 288 285 278 277 264 257 251 252 251 243 233 228 228 229 226 227 233 240 252 265 276 282 283 285 288 295 296 290 260 248 247 254 260 250 249 252 249 244 235 229 225
300 297 294 290 286 277 267 254 256 242 242 235 227 223 223 224 225 228 234 247 257 268 273 274 275 280 290 294 289 286 255 249 247 246 236 241 244 246 246 238 229 226 220
301 301 298 294 290 282 266 253 249 234 233 229 224 225 225 227 230 234 242 250 255 261 269 268 270 273 281 275 276 272 253 243 237 233 238 241 237 240 243 231 224 217 214
300 299 298 298 297 282 260 254 251 234 232 231 226 225 226 229 231 235 241 249 257 263 267 266 270 275 267 265 264 255 243 234 234 234 237 238 239 239 235 226 220 219 216
302 296 295 296 295 289 275 254 248 241 230 230 225 225 226 227 227 232 239 246 255 269 269 269 275 267 259 257 258 249 238 238 238 237 236 237 239 236 234 224 223 225 226
305 293 290 290 289 290 287 263 240 237 234 227 220 220 222 225 225 231 237 244 252 266 269 269 268 259 255 253 252 242 238 240 239 234 234 234 238 235 237 235 235 231 230
296 291 280 279 280 272 281 281 224 220 220 213 212 213 219 220 224 230 236 242 254 265 269 266 266 258 252 249 246 239 238 238 236 233 236 239 240 238 235 236 236 240 239
276 275 264 253 262 262 251 253 223 180 190 204 215 218 220 224 228 233 238 246 252 258 261 262 262 257 252 252 250 241 237 241 242 240 241 242 244 245 247 249 249 247 245
282 266 246 244 237 236 220 201 208 207 210 209 212 218 221 227 228 231 239 248 253 254 258 253 252 250 247 237 237 233 231 233 236 243 243 246 248 250 251 253 252 252 253